Caldwell, NJ

10:17 PM EST on November 11, 2019 (GMT -0500)
Essex County

Weather History for KCDW - September, 2019

Change the Weather History Date:

Monday, September 9, 2019

  Actual Average Record
Temperature  
Mean Temperature 71 °F -  
Max Temperature 81 °F 77 °F 93 °F (2002)
Min Temperature 61 °F 53 °F 34 °F (1984)
Cooling Degree Days 6    
Growing Degree Days 21 (Base 50)    
Moisture  
Dew Point 58 °F    
Average Humidity 66    
Maximum Humidity 90    
Minimum Humidity 50    
Precipitation  
Precipitation 0.00 in - - ()
Sea Level Pressure  
Sea Level Pressure 30.25 in    
Wind  
Wind Speed 3 mph ()    
Max Wind Speed 8 mph    
Max Gust Speed -    
Visibility 10.0 miles    
Events      
Averages and records for this station are not official NWS values.
T = Trace of Precipitation, MM = Missing Value Source: Averaged Metar Reports

Daily Weather History Graph

Daily Weather History Graph

Search for Another Location

Airport or City:

Astronomy

Sep. 09, 2019 Rise Set
Actual Time 6:31 AM EDT 7:16 PM EDT
Civil Twilight 6:03 AM EDT 7:44 PM EDT
Nautical Twilight 5:30 AM EDT 8:17 PM EDT
Astronomical Twilight 4:56 AM EDT 8:51 PM EDT
Moon 5:12 PM EDT (9/9) 1:58 AM EDT (9/9)
Length of Visible Light 13h 40m
Length of Day
12h 45m
Waxing Gibbous, 83% of the Moon is Illuminated
Sep 9
Waxing Gibbous
Sep 14
Full
Sep 21
Last Quarter
Sep 28
New
Oct 5
First Quarter

Hourly Weather History & Observations

Time (EDT) Temp. Heat Index Dew Point Humidity Pressure Visibility Wind Dir Wind Speed Gust Speed Precip Events Conditions
12:53 AM 69.1 °F - 54.0 °F 58% 30.18 in 10.0 mi ENE 6.9 mph - N/A   Partly Cloudy
1:53 AM 68.0 °F - 53.1 °F 59% 30.19 in 10.0 mi NE 3.5 mph - N/A   Scattered Clouds
2:53 AM 66.9 °F - 52.0 °F 59% 30.19 in 10.0 mi NE 4.6 mph - N/A   Mostly Cloudy
3:53 AM 64.9 °F - 53.1 °F 65% 30.20 in 10.0 mi Calm Calm - N/A   Overcast
4:53 AM 64.0 °F - 53.1 °F 67% 30.21 in 10.0 mi Calm Calm - N/A   Mostly Cloudy
5:53 AM 63.0 °F - 53.1 °F 70% 30.22 in 10.0 mi NNE 3.5 mph - N/A   Scattered Clouds
6:53 AM 61.0 °F - 53.1 °F 75% 30.24 in 10.0 mi Calm Calm - N/A   Clear
7:53 AM 63.0 °F - 54.0 °F 72% 30.25 in 10.0 mi Calm Calm - N/A   Partly Cloudy
8:53 AM 66.9 °F - 55.0 °F 66% 30.26 in 10.0 mi Variable 3.5 mph - N/A   Clear
9:53 AM 69.1 °F - 55.9 °F 63% 30.27 in 10.0 mi ENE 5.8 mph - N/A   Mostly Cloudy
10:53 AM 72.0 °F - 57.0 °F 59% 30.28 in 10.0 mi East 8.1 mph - N/A   Partly Cloudy
11:53 AM 73.0 °F - 57.9 °F 59% 30.27 in 10.0 mi ENE 4.6 mph - N/A   Mostly Cloudy
12:53 PM 75.0 °F - 57.9 °F 55% 30.27 in 10.0 mi East 3.5 mph - N/A   Mostly Cloudy
1:53 PM 78.1 °F - 60.1 °F 54% 30.25 in 10.0 mi Calm Calm - N/A   Mostly Cloudy
2:53 PM 81.0 °F 81.7 °F 61.0 °F 50% 30.23 in 10.0 mi Variable 4.6 mph - N/A   Overcast
3:53 PM 80.1 °F 81.2 °F 62.1 °F 54% 30.23 in 10.0 mi NE 5.8 mph - N/A   Mostly Cloudy
4:53 PM 78.1 °F - 61.0 °F 56% 30.24 in 10.0 mi SSE 6.9 mph - N/A   Mostly Cloudy
5:53 PM 77.0 °F - 62.1 °F 60% 30.25 in 10.0 mi South 6.9 mph - N/A   Overcast
6:53 PM 75.0 °F - 61.0 °F 62% 30.25 in 10.0 mi South 8.1 mph - N/A   Clear
7:53 PM 73.0 °F - 63.0 °F 71% 30.26 in 10.0 mi South 4.6 mph - N/A   Scattered Clouds
8:53 PM 69.1 °F - 63.0 °F 81% 30.29 in 10.0 mi Calm Calm - N/A   Scattered Clouds
9:53 PM 69.1 °F - 63.0 °F 81% 30.30 in 10.0 mi Calm Calm - N/A   Mostly Cloudy
10:06 PM 68.0 °F - 63.0 °F 84% 30.29 in 10.0 mi Calm Calm - N/A   Scattered Clouds
10:53 PM 66.9 °F - 63.0 °F 87% 30.31 in 10.0 mi Calm Calm - N/A   Scattered Clouds
11:53 PM 66.0 °F - 63.0 °F 90% 30.30 in 10.0 mi Calm Calm - N/A   Clear